Location: Newark
(35.2672°N, 80.7344°W)
Time: 04:56:05
(UTC+00:00)

Starlink Launch 2 leader - Visible Passes

Search period start: 13 December 2019 00:00
Search period end: 23 December 2019 00:00
Orbit: 279 x 281 km, 53.0° (Epoch: 13 November)

Date Brightness Start Highest point End Pass type
(mag) Time Alt. Az. Time Alt. Az. Time Alt. Az.
19 Dec 4.0 23:08:16 10° S 23:10:08 19° SE 23:10:46 17° ESE visible
20 Dec 2.6 23:09:35 10° SSW 23:11:58 48° SE 23:13:04 25° ENE visible
21 Dec 2.6 23:11:27 10° SW 23:13:52 58° NW 23:15:17 21° NNE visible
22 Dec 4.1 23:13:44 10° W 23:15:51 24° NW 23:17:26 14° NNE visible
